[[{"header":{"parameterUnit":"m.s-1","parameterCategory":1,"la1":30.2991,"la2":30.254,"lo1":-89.0895,"lo2":-89.0444,"dy":0.0017,"dx":0.0017,"nx":28,"ny":28,"refTime":"2025-01-04T03:00:00:Z","depth":0,"parameterNumber":2,"parameterNumberName":"U-component_of_WINDS"},"data":[0,0,0,0,0,0,0,0,0,0,0,0,0,0,0,0,0,0,0,0,0,0,0,0,0,0,0,0,0,0,0,0,0,0,0,0,0,0,0,0,0,0,0,0,0,0,0,0,0,0,0,0,0,0,0,0,0,0,0.9178,0.9178,0,0.9239,0.924,0.9241,0.9283,0.9283,0.9283,0.9283,0.9349,0.935,0.9352,0,0,0,0,0,0,0,0,0,0,0,0,0,0.9099,0.91,0.9178,0.9178,0.9179,0.9239,0.924,0.9241,0.9282,0.9283,0.9283,0.9283,0.9348,0.935,0.9352,0,0,0,0,0,0,0,0,0,0,0,0,0,0.9144,0.9101,0.9177,0.9207,0.921,0.9239,0.924,0.9241,0.9282,0.9283,0.9283,0.9284,0.9348,0.935,0.9352,0.9357,0,0,0.9359,0.936,0,0,0,0,0,0,0,0,0.9142,0.9147,0.9202,0.9205,0.9209,0.9254,0.9237,0.928,0.9282,0.9255,0.9283,0.9284,0.9317,0.9322,0.9332,0.936,0.9363,0.9359,0.936,0.9361,0.9362,0,0,0,0,0,0,0,0.9138,0.9145,0.9202,0.9203,0.9207,0.9218,0.9225,0.9245,0.9283,0.9257,0.9261,0.9267,0.9319,0.933,0.9334,0.9364,0.9359,0.9361,0.9362,0.9363,0.9401,0.94,0,0,0,0,0,0,0.913,0.9142,0.92,0.9204,0.9176,0.9219,0.9227,0.9239,0.9283,0.929,0.9267,0.9269,0.9326,0.9332,0.9337,0.9346,0.9361,0.9363,0.9364,0.9401,0.9401,0.94,0,0,0,0,0,0,0.9128,0.9135,0.9198,0.9174,0.9183,0.922,0.9233,0.924,0.9251,0.929,0.9297,0.9271,0.9327,0.9334,0.9352,0.9349,0.9364,0.9366,0.9401,0.9401,0.94,0.9364,0,0,0,0,0,0,0.9126,0.9134,0.9135,0.9173,0.9184,0.921,0.9233,0.9241,0.9255,0.9258,0.9296,0.9302,0.9328,0.9348,0.9354,0.9352,0.9368,0.9402,0.9401,0.9401,0.9366,0.9363,0.936,0,0,0,0,0,0.9123,0.9123,0.9135,0.9142,0.9186,0.921,0.9216,0.9244,0.9254,0.9256,0.9282,0.9301,0.9349,0.935,0.9357,0.9355,0.9402,0.9401,0.9401,0.9367,0.9363,0.936,0,0,0,0,0,0,0.9083,0.9128,0.9142,0.9154,0.9178,0.9217,0.922,0.9239,0.9261,0.9263,0.9299,0.9307,0.9322,0.9341,0.9341,0.9364,0.9378,0.9378,0.935,0.9347,0.9344,0.9339,0.937,0,0,0,0,0,0.9076,0.9091,0.913,0.9137,0.9148,0.9182,0.9194,0.9214,0.924,0.9251,0.9277,0.9303,0.9324,0.9337,0.9358,0.937,0.9379,0.9372,0.9369,0.9367,0.9367,0.9376,0.9373,0.9398,0.9398,0.9398,0,0,0.9061,0.9087,0.9095,0.913,0.915,0.9166,0.919,0.9206,0.9218,0.9253,0.9272,0.9293,0.9324,0.9339,0.9347,0.9355,0.9362,0.9366,0.9363,0.9365,0.9375,0.9372,0.937,0.9397,0.9398,0.9398,0,0,0.9041,0.9062,0.9071,0.9092,0.9123,0.9146,0.9148,0.9185,0.92,0.9219,0.9246,0.9263,0.9297,0.9319,0.9334,0.9326,0.9345,0.9332,0.9315,0.9324,0.9322,0.932,0.9318,0.9316,0.9332,0.9332,0.9332,0,0.9018,0.9042,0.9073,0.9087,0.9102,0.9135,0.9145,0.9164,0.92,0.9211,0.922,0.9265,0.9288,0.931,0.9308,0.9319,0.9324,0.9327,0.932,0.9318,0.9317,0.9315,0.9314,0.933,0.933,0.933,0.933,0,0.9013,0.903,0.9033,0.9068,0.9084,0.9095,0.9129,0.9142,0.9161,0.9184,0.9204,0.9234,0.9262,0.9269,0.9288,0.9294,0.9298,0.9313,0.9328,0.9313,0.9311,0.9311,0.9327,0.9328,0.9328,0.9329,0,0,0.8968,0.9021,0.9022,0.9038,0.9076,0.909,0.9105,0.9132,0.9143,0.9168,0.9182,0.9212,0.9226,0.9244,0.9266,0.9273,0.9266,0.9288,0.9289,0.9282,0.9275,0.9263,0.9261,0.9279,0.9279,0.9279,0.9272,0,0.8954,0.898,0.9009,0.9026,0.9042,0.9075,0.9088,0.9113,0.9136,0.9154,0.918,0.92,0.9217,0.9228,0.9237,0.9264,0.9264,0.9266,0.9293,0.9293,0.9283,0.9261,0.9248,0.9239,0.9272,0.9272,0.9272,0,0.894,0.8964,0.8982,0.902,0.9028,0.9039,0.9067,0.9084,0.9115,0.9131,0.9151,0.9175,0.9194,0.9208,0.9235,0.9235,0.9248,0.9263,0.9264,0.9267,0.9281,0.9263,0.9238,0.9236,0.9271,0.9271,0.9271,0,0.8905,0.8942,0.8958,0.8971,0.9016,0.9023,0.9042,0.9073,0.9088,0.9114,0.9125,0.9152,0.9167,0.9189,0.9221,0.9228,0.9244,0.9261,0.9259,0.9258,0.926,0.9259,0.9236,0.9269,0.9269,0.9269,0.9269,0,0.8886,0.8896,0.8943,0.8952,0.8965,0.9,0.9012,0.9034,0.9062,0.9077,0.9108,0.9123,0.9164,0.9183,0.9209,0.9228,0.9234,0.9248,0.9255,0.9245,0.9243,0.9254,0.9255,0.9269,0.9269,0.9269,0.9269,0,0.8848,0.888,0.8899,0.8941,0.8952,0.8959,0.8995,0.9007,0.9032,0.9052,0.9058,0.9098,0.9123,0.9157,0.9193,0.921,0.9226,0.9236,0.9215,0.9218,0.9215,0.9214,0.9197,0.9197,0.923,0.923,0.923,0,0.8833,0.8841,0.8884,0.8897,0.8915,0.8934,0.895,0.8986,0.9002,0.9038,0.9046,0.9073,0.9097,0.9136,0.9169,0.9197,0.9208,0.92,0.9212,0.9203,0.9208,0.9206,0.9208,0.9196,0.9196,0.9195,0.9195,0,0.8803,0.8819,0.884,0.8867,0.8886,0.8909,0.8934,0.8943,0.8984,0.9001,0.9026,0.9045,0.9082,0.9109,0.9142,0.9164,0.9187,0.9191,0.9192,0.9182,0.9169,0.9176,0.9206,0.9191,0.9191,0.9192,0.9192,0.9192,0.8776,0.8785,0.8817,0.884,0.8863,0.8886,0.8899,0.8927,0.8949,0.8981,0.9001,0.9027,0.906,0.9106,0.9127,0.9148,0.9157,0.9159,0.9159,0.9159,0.9155,0.9167,0.9155,0.9155,0.9155,0.9155,0.9155,0,0.8747,0.877,0.8791,0.8825,0.8844,0.8864,0.8894,0.8908,0.893,0.8958,0.8981,0.9012,0.904,0.9075,0.9106,0.9116,0.9127,0.9123,0.9122,0.9127,0.9146,0.9142,0.9113,0.9113,0.9113,0.9113,0.9113,0.9113,0.8734,0.8751,0.8771,0.8801,0.8824,0.8849,0.8864,0.8886,0.8909,0.8942,0.8965,0.8988,0.902,0.9053,0.908,0.909,0.91,0.9091,0.9105,0.9121,0.9125,0.9129,0.9125,0.9093,0.9093,0.9084,0.9084,0.9084]},{"header":{"parameterUnit":"m.s-1","parameterCategory":1,"la1":30.2991,"la2":30.254,"lo1":-89.0895,"lo2":-89.0444,"dy":0.0017,"dx":0.0017,"nx":28,"ny":28,"refTime":"2025-01-04T03:00:00:Z","depth":0,"parameterNumber":3,"parameterNumberName":"V-component_of_WINDS"},"data":[0,0,0,0,0,0,0,0,0,0,0,0,0,0,0,0,0,0,0,0,0,0,0,0,0,0,0,0,0,0,0,0,0,0,0,0,0,0,0,0,0,0,0,0,0,0,0,0,0,0,0,0,0,0,0,0,0,0,-2.8052,-2.8052,0,-2.8081,-2.8081,-2.8081,-2.8133,-2.8134,-2.8135,-2.8136,-2.8163,-2.8163,-2.8163,0,0,0,0,0,0,0,0,0,0,0,0,0,-2.8044,-2.8044,-2.8052,-2.8053,-2.8053,-2.808,-2.8081,-2.8081,-2.8133,-2.8134,-2.8135,-2.8136,-2.8164,-2.8163,-2.8163,0,0,0,0,0,0,0,0,0,0,0,0,0,-2.8057,-2.8044,-2.8052,-2.8082,-2.8085,-2.808,-2.8081,-2.8081,-2.8132,-2.8134,-2.8135,-2.8137,-2.8164,-2.8163,-2.8163,-2.8131,0,0,-2.8162,-2.8162,0,0,0,0,0,0,0,0,-2.8056,-2.8058,-2.8077,-2.808,-2.8083,-2.8105,-2.8088,-2.8098,-2.8132,-2.8114,-2.8136,-2.8138,-2.8143,-2.8144,-2.8146,-2.8133,-2.8134,-2.8162,-2.8162,-2.8162,-2.8162,0,0,0,0,0,0,0,-2.8055,-2.8057,-2.8063,-2.8077,-2.8081,-2.8094,-2.8098,-2.809,-2.812,-2.8116,-2.812,-2.8123,-2.8145,-2.8146,-2.8147,-2.8134,-2.8162,-2.8162,-2.8162,-2.8162,-2.81,-2.8099,0,0,0,0,0,0,-2.805,-2.8056,-2.8062,-2.8064,-2.8073,-2.8093,-2.8097,-2.8096,-2.812,-2.8125,-2.8121,-2.8125,-2.8146,-2.8147,-2.8148,-2.8115,-2.8162,-2.8162,-2.8161,-2.8101,-2.81,-2.8098,0,0,0,0,0,0,-2.805,-2.805,-2.8061,-2.8061,-2.8063,-2.8092,-2.809,-2.8096,-2.8098,-2.8124,-2.8129,-2.8118,-2.8147,-2.8149,-2.8136,-2.8117,-2.8161,-2.8161,-2.8103,-2.8101,-2.8099,-2.8046,0,0,0,0,0,0,-2.8049,-2.805,-2.8037,-2.806,-2.8063,-2.8048,-2.8089,-2.8096,-2.8097,-2.8102,-2.8122,-2.8127,-2.8149,-2.8136,-2.8136,-2.8117,-2.8161,-2.8105,-2.8102,-2.81,-2.805,-2.8043,-2.8036,0,0,0,0,0,-2.8049,-2.802,-2.8036,-2.8037,-2.8048,-2.8047,-2.8048,-2.8074,-2.8095,-2.8084,-2.8101,-2.8126,-2.8119,-2.8134,-2.8134,-2.8115,-2.8106,-2.8103,-2.81,-2.8053,-2.8044,-2.8036,0,0,0,0,0,0,-2.7993,-2.8024,-2.8042,-2.802,-2.8031,-2.8055,-2.8041,-2.8064,-2.8068,-2.8072,-2.8105,-2.8109,-2.8092,-2.8103,-2.8119,-2.8088,-2.8117,-2.8113,-2.8081,-2.8073,-2.8066,-2.8064,-2.8161,0,0,0,0,0,-2.7978,-2.7974,-2.8001,-2.798,-2.7984,-2.8012,-2.8012,-2.8032,-2.8043,-2.8048,-2.8064,-2.8075,-2.8076,-2.8075,-2.8076,-2.8052,-2.8058,-2.8039,-2.8032,-2.8027,-2.8023,-2.8014,-2.8006,-2.8087,-2.8087,-2.8087,0,0,-2.7947,-2.7964,-2.7959,-2.7969,-2.7979,-2.7975,-2.8015,-2.8008,-2.8006,-2.8047,-2.8036,-2.8049,-2.8063,-2.8045,-2.8038,-2.8053,-2.8003,-2.8023,-2.8018,-2.8017,-2.801,-2.8002,-2.7995,-2.8085,-2.8085,-2.8086,0,0,-2.7889,-2.79,-2.7885,-2.7895,-2.7911,-2.7931,-2.7927,-2.7949,-2.796,-2.795,-2.7982,-2.798,-2.7979,-2.7989,-2.7994,-2.7944,-2.7968,-2.7944,-2.7908,-2.7899,-2.7892,-2.7887,-2.7871,-2.7864,-2.794,-2.794,-2.794,0,-2.7848,-2.7843,-2.7874,-2.7866,-2.787,-2.7909,-2.7895,-2.7903,-2.7918,-2.7921,-2.7938,-2.7941,-2.7953,-2.7939,-2.7928,-2.793,-2.7928,-2.7941,-2.7891,-2.7886,-2.7881,-2.7866,-2.7859,-2.7937,-2.7938,-2.7938,-2.7938,0,-2.7793,-2.779,-2.7775,-2.7791,-2.7794,-2.7782,-2.7812,-2.7811,-2.7832,-2.785,-2.7841,-2.7858,-2.7865,-2.7864,-2.7882,-2.7853,-2.7863,-2.7885,-2.7915,-2.787,-2.7856,-2.7851,-2.7933,-2.7934,-2.7935,-2.7936,0,0,-2.7697,-2.7733,-2.7727,-2.7737,-2.7759,-2.7757,-2.7749,-2.7757,-2.7757,-2.7767,-2.7762,-2.7763,-2.7784,-2.779,-2.7811,-2.7803,-2.7765,-2.7827,-2.7827,-2.7815,-2.7737,-2.772,-2.7713,-2.7781,-2.778,-2.778,-2.7736,0,-2.7644,-2.7632,-2.7661,-2.7642,-2.764,-2.7679,-2.7673,-2.7686,-2.7704,-2.7705,-2.7725,-2.7725,-2.7753,-2.7757,-2.7751,-2.7771,-2.775,-2.7774,-2.7778,-2.7777,-2.7773,-2.7705,-2.7687,-2.7645,-2.7731,-2.773,-2.7729,0,-2.758,-2.7589,-2.757,-2.7597,-2.7597,-2.759,-2.7602,-2.7603,-2.7621,-2.7634,-2.7642,-2.7668,-2.7663,-2.7693,-2.7688,-2.7704,-2.7708,-2.7718,-2.7717,-2.7718,-2.775,-2.7705,-2.7632,-2.7625,-2.7721,-2.7721,-2.7722,0,-2.7513,-2.7521,-2.7512,-2.7518,-2.7549,-2.7543,-2.7556,-2.7575,-2.7579,-2.759,-2.7594,-2.7603,-2.7608,-2.7616,-2.7644,-2.7662,-2.7636,-2.7667,-2.7648,-2.7648,-2.764,-2.764,-2.7567,-2.7642,-2.7642,-2.7642,-2.7642,0,-2.7451,-2.7438,-2.7483,-2.7476,-2.7464,-2.7499,-2.7486,-2.7503,-2.752,-2.7519,-2.7553,-2.7552,-2.7589,-2.7592,-2.7615,-2.7609,-2.761,-2.7622,-2.7628,-2.7619,-2.7617,-2.7621,-2.7625,-2.764,-2.7641,-2.7641,-2.7641,0,-2.7374,-2.7403,-2.7395,-2.7427,-2.7434,-2.7424,-2.7451,-2.7448,-2.7469,-2.7467,-2.7469,-2.7502,-2.7508,-2.7537,-2.7549,-2.7565,-2.7551,-2.7563,-2.7545,-2.7549,-2.7529,-2.7531,-2.7455,-2.7448,-2.7527,-2.7526,-2.7525,0,-2.7332,-2.7323,-2.7354,-2.7357,-2.7368,-2.7371,-2.7377,-2.7411,-2.7416,-2.7438,-2.7432,-2.7441,-2.745,-2.7458,-2.7483,-2.7493,-2.7506,-2.7479,-2.7508,-2.75,-2.7507,-2.7508,-2.7508,-2.7473,-2.7472,-2.7471,-2.747,0,-2.7254,-2.7271,-2.7277,-2.729,-2.7296,-2.7307,-2.7321,-2.7321,-2.736,-2.7363,-2.7371,-2.7378,-2.7392,-2.7401,-2.7417,-2.7431,-2.7457,-2.7461,-2.7458,-2.7448,-2.7439,-2.7445,-2.7529,-2.7462,-2.7463,-2.7464,-2.7464,-2.7464,-2.7194,-2.719,-2.7212,-2.7219,-2.7234,-2.7247,-2.7246,-2.7268,-2.7275,-2.729,-2.7311,-2.7316,-2.7337,-2.7361,-2.7373,-2.7379,-2.7393,-2.7387,-2.7386,-2.7384,-2.7381,-2.7438,-2.7381,-2.7382,-2.7382,-2.7382,-2.7382,0,-2.712,-2.7137,-2.7144,-2.7163,-2.7169,-2.7196,-2.7213,-2.7217,-2.7221,-2.7239,-2.7248,-2.7258,-2.7268,-2.7296,-2.7309,-2.7308,-2.7321,-2.7311,-2.7311,-2.7314,-2.7366,-2.7368,-2.73,-2.73,-2.73,-2.73,-2.73,-2.73,-2.7082,-2.7076,-2.7095,-2.7099,-2.7116,-2.7122,-2.713,-2.7143,-2.7158,-2.7168,-2.7177,-2.7196,-2.7218,-2.7234,-2.7246,-2.7254,-2.7257,-2.7243,-2.7255,-2.7302,-2.731,-2.7318,-2.732,-2.7243,-2.7243,-2.7204,-2.7203,-2.7203]}]]